Погода в Дальнереченске

Погода в Дальнереченске : погода сейчас, прогноз погоды и архив. Всё, что Вы хотите узнать о погоде в Дальнереченске!

Хотите узнать прогноз погоды в Дальнереченске? Тогда Вам сюда: Погода в Дальнереченске

Поиск расширенной информации на нашем сайте:

Другие новости

Новости СМИ2

Главная страница сайта

Новости сайта

03.07.2017

Напоминаем, что на нашем специализированном сайте Метеоцентр.Азия вы можете получить высокодетализированные автоматические прогнозы погоды по пунктам России, СНГ и мира в авиационном формате (включающие направление и скорость ветра, видимость, явления погоды, количество и форму облачности, нижнюю и верхнюю границу облачности).

Рекомендуем: http://vibromash.com/ трос сантехнический для прочистки канализации купить.

Погода в Дальнереченске - сегодня

Время (UTC), дата Ветер
(°,м/с) 
Видим.   Явления Облачность Т
(°С)
Тd
(°С)
f(%) Тe
(°С)
Pmin
(гПа)
dP
(гПа)
Po
(мм)
O2
(г/м3)
Тmin Tmax R s Состояние
почвы
18 18.01.18 230 (ЮЗ) 4000 м  дымка  ясно 
-18.4 -21.2 79 -19  1024.9  0.6  758  329           
21 18.01.18 060 (СВ) 4000 м  дымка  ясно 
-24.6 -27.9 74 -25  1024.3  -0.9  758  337  -24.6      32  равномерный
сухой снег
100% 
00 19.01.18 тихо ()   4000 м  дымка  ясно 
-24.4 -27.4 76 -24  1024.7  0.4  758  337  -26.1         
03 19.01.18 060 (СВ) 4000 м  дымка  ясно 
-17.2 -20.8 74 -17  1022.4  -1.9  757  327           
06 19.01.18 050 (СВ) 10 км    4/0 верхняя 
[Ci fib]
-13 -19.4 59 -15  1018.3  -3.8  754  320           
09 19.01.18 080 (В) 10 км    4/0 верхняя 
[Ci fib]
-13.5 -18.8 64 -16  1016.4  -1.9  752  320    -12.7       
12 19.01.18 тихо ()   10 км    ясно 
-15.1 -19 72 -15  1015.7  -0.8  752  322           
15 19.01.18 250 (З) 10 км    ясно 
-14.1 -17 79 -18  1015.7  0.1  752  321           
18 19.01.18 260 (З) 10 км    ясно 
-15.5 -18.1 80 -19  1016.4  0.6  752  323           
21 19.01.18 240 (ЮЗ) 10 км    ясно 
-18.2 -20.5 82 -21  1016.2  -0.4  752  326  -18.3      31  равномерный
сухой снег
100% 
00 20.01.18 240 (ЮЗ) 10 км    10/0 средняя, верхняя 
[Ac lent|Cs]
-17.7 -20.5 79 -22  1017.2  1.1  753  326  -19         
03 20.01.18 220 (ЮЗ) 10 км    6/0 верхняя 
[Ci fib]
-13.9 -19 65 -17  1018  0.9  753  321           
06 20.01.18 260 (З) 6-11{11}  10 км    3/3 600 м 
[Sc]
-12.1 -27.8 26 -18  1018.7  0.8  754  320           
09 20.01.18 270 (З) 3{11}  10 км    ясно 
-16.7 -29.2 33 -21  1020.7  1.7  755  326    -11.3       
12 20.01.18 270 (З) 10 км    ясно 
-20.2 -30 41 -23  1021.1  0.3  755  331           
15 20.01.18 250 (З) 10 км    ясно 
-19.7 -30.4 38 -25  1022.3  1.2  756  330           
18 20.01.18 240 (ЮЗ) 10 км    ясно 
-23.3 -31.3 48 -28  1022.9  0.4  757  335           
21 20.01.18 260 (З) 10 км    ясно 
-25.6 -31.4 58 -29  1023.2  0.1  757  338  -26.3      30  равномерный
сухой снег
100% 
00 21.01.18 230 (ЮЗ) 20000 м    ясно 
-24.2 -30.5 56 -29  1024.4  1.3  758  337  -27.9         
03 21.01.18 240 (ЮЗ) 20000 м    ясно 
-19.4 -28.9 43 -25  1024.5  0.4  758  331           
06 21.01.18 230 (ЮЗ) 20000 м    ясно 
-18 -27.5 43 -23  1024  -0.5  758  329           
09 21.01.18 220 (ЮЗ) 10 км    ясно 
-21.6 -27.3 60 -22  1024.4  0.2  758  333    -17.8       
12 21.01.18 240 (ЮЗ) 10 км    ясно 
-23 -28.7 60 -26  1024.3  -0.1  758  335           
15 21.01.18 240 (ЮЗ) 10 км    ясно 
-24.5 -29.2 65 -28  1025  0.6  758  337           
18 21.01.18 230 (ЮЗ) 10 км    ясно 
-25.2 -30.2 63 -30  1025.1  0.1  758  338           
Время (UTC), дата Ветер
(°,м/с) 
Видим.   Явления Облачность Т
(°С)
Тd
(°С)
f(%) Тe
(°С)
Pmin
(гПа)
dP
(гПа)
Po
(мм)
O2
(г/м3)
Тmin Tmax R s Состояние
почвы

Для получения пояснительной информации подведите курсор к названию столбца.

ПОГОДА в Дальнереченске - архив

Всё, что Вы хотите узнать о погоде в Дальнереченске - удобно и подробно!

Выберите нужную дату (начиная с 1 января 2015* года) и нажмите кнопку "Найти".
Будут отображены архивные сводки погоды по пункту Дальнереченск, начиная с указанной даты.


Отображать данные в формате CSV (для использования в таблицах Excel)


Внимание! Наш архив погоды предназначен исключительно для личного некоммерческого использования в познавательных целях. Если Вам необходимы официальные справки о состоянии погоды (для производственных, юридических, коммерческих и т.п. целей), обращайтесь в органы Росгидромета.

*Примечание: данная дата относится к архиву по метеостанциям СССР (Россия, СНГ, Балтия).
Архив по метеостанциям Зарубежной Европы и Азии (кроме Китая) хранится 10 дней, по другим регионам земного шара (Китай, Африка, Америка, Австралия, Океания) - 1 день.

Дальнереченск - район местоположения метеостанции


Название, широта, долгота, высота метеостанции:
Дальнереченск 45.9°ш. 133.7°д. 101 м над ур. моря [Российская Федерация]

Дополнительная информация

В oтличие oт бoльшинства пoгoдных сайтoв мы публикуем пoдрoбную метеoинфoрмацию в детальнoм прoфессиoнальнoм фoрмате.

Характеристики температуры и влажнoсти вoздуха измеряются на высoте 2 м в тени вдали oт зданий и деревьев.
Скoрoсть ветра измеряется на высoте 10 м (на урoвне рoста челoвека скoрoсть ветра ниже в 1.5-2 раза). Если метеoстанция нахoдится в гoрoде или в лесу, тo скoрoсть ветра занижена на 2-4 м/с пo сравнению с oткрытым местoм. Скoрoсть ветра над акватoриями крупных рек и oзёр, а также на вершинах хoлмoв на 2-5 м/с выше, чем в oбычных услoвиях.
Атмoсфернoе давление в разных тoчках местнoсти мoжет значительнo oтличаться oт давления на метеoстанции, в зависимoсти oт услoвий рельефа (при пoдъёме на 10 м давление пoнижается примернo на 1 мм рт.ст.).